Location: Hamburg
(53.5554°N, 9.9941°E)
Time: 03:36:55
(UTC+02:00)

ISS - Pass Details

Date: 10 May 2021
Orbit: 417 x 422 km, 51.6° (Epoch: 15 June)

Event Time Altitude Azimuth Distance (km) Brightness Sun altitude
Exits shadow 04:22:02 - 272° (W) 2,082 -0.6 -8.4°
Reaches altitude 10° 04:23:26 10° 269° (W) 1,510 -1.4 -8.3°
Maximum altitude 04:26:46 55° 191° (S) 516 -3.6 -7.9°
Drops below altitude 10° 04:30:05 10° 113° (ESE) 1,509 -0.6 -7.6°
Sets 04:32:12 0° 109° (ESE) 2,374 0.5 -7.3°
